Weather History for Wisconsin Rapids, WI

Change the Weather History Date:

Tuesday, May 14, 2013

  Actual Average Record
Temperature  
Mean Temperature 63 °F -  
Max Temperature 86 °F 68 °F 92 °F (1977)
Min Temperature 42 °F 42 °F 28 °F (1973)
Degree Days  
Heating Degree Days 2    
Growing Degree Days 13 (Base 50)    
Moisture  
Dew Point 44 °F    
Average Humidity 46    
Maximum Humidity 79    
Minimum Humidity 19    
Precipitation  
Precipitation 0.00 in - - ()
Sea Level Pressure  
Sea Level Pressure 29.66 in    
Wind  
Wind Speed 5 mph (SSE)    
Max Wind Speed 12 mph    
Max Gust Speed 21 mph    
Visibility 10 miles    
Events      
Averages and records for this station are not official NWS values.
T = Trace of Precipitation, MM = Missing Value Source: NWS Daily Summary

Daily Weather History Graph

Daily Weather History Graph

Search for Another Location

Airport:

Trip Planner

Search our weather history database for the weather conditions in past years. The results will help you decide how hot, cold, wet, or windy it might be!

Date:

Astronomy

May. 14, 2013 Rise Set
Actual Time 5:33 AM CDT 8:19 PM CDT
Civil Twilight 4:59 AM CDT 8:52 PM CDT
Nautical Twilight 4:17 AM CDT 9:35 PM CDT
Astronomical Twilight 3:27 AM CDT 10:24 PM CDT
Moon 9:13 AM CDT (5/14) No Moon Set
Length of Visible Light 15h 53m
Length of Day
14h 45m
Waxing Crescent, 19% of the Moon is Illuminated
May 14
Waxing Crescent
May 17
First Quarter
May 24
Full
May 31
Last Quarter
Jun 8
New

Hourly Weather History & Observations

Time (CDT) Temp. Dew Point Humidity Pressure Visibility Wind Dir Wind Speed Gust Speed Precip Events Conditions
12:54 AM 51.1 °F 36.0 °F 56% 29.82 in 10.0 mi SE 4.6 mph - N/A   Partly Cloudy
1:54 AM 48.9 °F 36.0 °F 61% 29.78 in 10.0 mi SE 5.8 mph - N/A   Clear
2:54 AM 48.0 °F 36.0 °F 63% 29.75 in 10.0 mi SE 4.6 mph - N/A   Partly Cloudy
3:54 AM 46.9 °F 37.0 °F 68% 29.73 in 10.0 mi SE 3.5 mph - N/A   Clear
4:54 AM 45.0 °F 37.0 °F 74% 29.72 in 10.0 mi Calm Calm - N/A   Clear
5:54 AM 42.1 °F 36.0 °F 79% 29.72 in 10.0 mi Calm Calm - N/A   Clear
6:54 AM 51.1 °F 39.9 °F 66% 29.73 in 10.0 mi Calm Calm - N/A   Clear
7:54 AM 59.0 °F 45.0 °F 60% 29.72 in 10.0 mi WSW 3.5 mph - N/A   Clear
8:54 AM 64.9 °F 46.9 °F 52% 29.70 in 10.0 mi WNW 4.6 mph - N/A   Clear
9:54 AM 70.0 °F 46.0 °F 42% 29.72 in 10.0 mi Calm Calm - N/A   Clear
10:54 AM 75.0 °F 46.9 °F 37% 29.73 in 10.0 mi Calm Calm - N/A   Clear
11:54 AM 77.0 °F 46.0 °F 33% 29.74 in 10.0 mi NE 3.5 mph - N/A   Clear
12:54 PM 77.0 °F 42.1 °F 29% 29.78 in 10.0 mi NW 6.9 mph - N/A   Clear
1:54 PM 75.9 °F 48.0 °F 37% 29.72 in 10.0 mi ESE 6.9 mph - N/A   Scattered Clouds
2:54 PM 82.9 °F 37.0 °F 19% 29.66 in 10.0 mi SE 10.4 mph - N/A   Clear
3:54 PM 84.9 °F 41.0 °F 21% 29.62 in 10.0 mi SSE 8.1 mph 18.4 mph N/A   Clear
4:54 PM 84.9 °F 43.0 °F 23% 29.59 in 10.0 mi SSE 10.4 mph 20.7 mph 0.00 in   Partly Cloudy
5:54 PM 84.9 °F 45.0 °F 25% 29.56 in 10.0 mi SSE 8.1 mph 17.3 mph N/A   Clear
6:54 PM 84.9 °F 45.0 °F 25% 29.52 in 10.0 mi Variable 6.9 mph 18.4 mph N/A   Clear
7:54 PM 78.1 °F 52.0 °F 40% 29.50 in 10.0 mi SE 6.9 mph - N/A   Clear
8:54 PM 72.0 °F 53.1 °F 51% 29.51 in 10.0 mi SE 3.5 mph - N/A   Clear
9:54 PM 68.0 °F 53.1 °F 59% 29.51 in 10.0 mi South 4.6 mph - N/A   Clear
10:54 PM 71.1 °F 54.0 °F 55% 29.50 in 10.0 mi SW 9.2 mph - N/A   Clear
11:54 PM 75.0 °F 48.0 °F 38% 29.54 in 10.0 mi WNW 11.5 mph - N/A   Clear